Tracking 17141 objects as of 6-July-2015
HD Live streaming from Space Station

UNAMSAT

Track UNAMSAT now!
10-day predictions
UNAMSAT is classified as:


NORAD ID: 24305
Int'l Code: 1996-052B
Perigee: 971.9 km
Apogee: 1,014.7 km
Inclination: 82.9 °
Period: 104.8 minutes
Semi major axis: 7364 km
RCS: 0.174 m2 (medium)
Launch date: September 5, 1996
Source: Mexico (MEX)
Your satellite tracking list
Your tracking list is empty





NASA's NSSDC Master Catalog

Two Line Element Set (TLE):
1 24305U 96052B   15186.86968523  .00000050  00000-0  37399-4 0  9994
2 24305 082.9363 159.5778 0029014 223.5201 201.1339 13.73746356944034

Source of the keplerian elements: AFSPC

N2YO: 223